| time (UTC) | temp C | wind direction | speed KPH | gust KPH | rain 1hr cm | rain 24hr cm | rain mn cm | humidity % | barometer mb |
| 20260906221557 | 24 | 53 | 0.0 | 9.7 | 0.00 | 0.00 | 0.00 | 65 | 1007.1 |
| 20260906220054 | 24 | 63 | 0.0 | 8.0 | 0.00 | 0.00 | 0.00 | 64 | 1007.2 |
| 20260906214552 | 23 | 45 | 0.0 | 17.7 | 0.00 | 0.00 | 0.00 | 65 | 1007.3 |
| 20260906213054 | 23 | 49 | 0.0 | 9.7 | 0.00 | 0.00 | 0.00 | 65 | 1007.5 |
| 20260906211548 | 23 | 76 | 0.0 | 4.8 | 0.00 | 0.00 | 0.00 | 66 | 1007.7 |
| 20260906204558 | 23 | 62 | 0.0 | 4.8 | 0.00 | 0.00 | 0.00 | 67 | 1008.4 |
| 20260906203035 | 22 | 330 | 0.0 | 9.7 | 0.00 | 0.00 | 0.00 | 67 | 1008.5 |
| 20260906201534 | 22 | 24 | 1.6 | 19.3 | 0.00 | 0.00 | 0.00 | 68 | 1008.5 |
| 20260906200030 | 21 | 60 | 0.0 | 19.3 | 0.00 | 0.00 | 0.00 | 70 | 1008.9 |
| 20260906194527 | 21 | 26 | 0.0 | 4.8 | 0.00 | 0.00 | 0.00 | 70 | 1009.3 |
| 20260906193022 | 21 | 21 | 0.0 | 19.3 | 0.00 | 0.00 | 0.00 | 71 | 1009.5 |
| 20260906191520 | 20 | 9 | 0.0 | 14.5 | 0.00 | 0.00 | 0.00 | 73 | 1009.7 |
| 20260906190016 | 20 | 13 | 0.0 | 4.8 | 0.00 | 0.00 | 0.00 | 75 | 1009.9 |
| 20260906184516 | 19 | 359 | 1.6 | 12.9 | 0.00 | 0.00 | 0.00 | 76 | 1009.9 |
| 20260906183015 | 19 | 356 | 1.6 | 22.5 | 0.00 | 0.00 | 0.00 | 77 | 1010.2 |
| 20260906181512 | 19 | 312 | 3.2 | 16.1 | 0.00 | 0.00 | 0.00 | 78 | 1010.5 |
| 20260906180012 | 19 | 321 | 3.2 | 17.7 | 0.00 | 0.00 | 0.00 | 78 | 1010.7 |
| 20260906174512 | 18 | 353 | 0.0 | 9.7 | 0.00 | 0.00 | 0.00 | 78 | 1011.1 |
| 20260906173040 | 18 | 39 | 1.6 | 11.3 | 0.00 | 0.00 | 0.00 | 79 | 1011.4 |
| 20260906171542 | 18 | 20 | 1.6 | 14.5 | 0.00 | 0.00 | 0.00 | 79 | 1011.7 |
| 20260906170039 | 18 | 25 | 0.0 | 17.7 | 0.00 | 0.00 | 0.00 | 80 | 1011.7 |
| 20260906164537 | 18 | 329 | 1.6 | 16.1 | 0.00 | 0.00 | 0.00 | 79 | 1011.8 |
| 20260906163036 | 18 | 330 | 0.0 | 19.3 | 0.00 | 0.00 | 0.00 | 80 | 1011.8 |
| 20260906161542 | 17 | 332 | 0.0 | 4.8 | 0.00 | 0.00 | 0.00 | 82 | 1011.8 |
| 20260906160032 | 18 | 321 | 0.0 | 0.0 | 0.00 | 0.00 | 0.00 | 82 | 1011.9 |
| 20260906154542 | 18 | 4 | 0.0 | 0.0 | 0.00 | 0.00 | 0.00 | 81 | 1011.5 |
| 20260906153035 | 18 | 12 | 0.0 | 6.4 | 0.00 | 0.00 | 0.00 | 82 | 1010.7 |
| 20260906151531 | 17 | 282 | 1.6 | 20.9 | 0.00 | 0.00 | 0.00 | 85 | 1010.6 |
| 20260906150032 | 17 | 288 | 0.0 | 1.6 | 0.00 | 0.00 | 0.00 | 84 | 1011.7 |
| 20260906144528 | 17 | 192 | 0.0 | 1.6 | 0.00 | 0.00 | 0.00 | 83 | 1011.4 |
| 20260906143027 | 17 | 62 | 0.0 | 0.0 | 0.00 | 0.00 | 0.00 | 83 | 1010.6 |
| 20260906141526 | 17 | 282 | 0.0 | 0.0 | 0.00 | 0.00 | 0.00 | 84 | 1011.4 |
| 20260906140100 | 16 | 282 | 0.0 | 0.0 | 0.00 | 0.00 | 0.00 | 88 | 1011.3 |
| 20260906134557 | 14 | 282 | 0.0 | 0.0 | 0.00 | 0.00 | 0.00 | 90 | 1011.3 |
| 20260906133051 | -17 | 0.0 | 0.0 | 0.00 | 0.00 | 0.00 | 1011.2 | ||
| 20260906131547 | -17 | 0.0 | 0.0 | 0.00 | 0.00 | 0.00 | 1010.9 | ||
| 20260906130050 | -17 | 0.0 | 0.0 | 0.00 | 0.00 | 0.00 | 1011.4 | ||
| 20260906124537 | -17 | 0.0 | 0.0 | 0.00 | 0.00 | 0.00 | 1011.3 | ||
| 20260906123040 | -17 | 0.0 | 0.0 | 0.00 | 0.00 | 0.00 | 1011.3 | ||
| 20260906121527 | -17 | 0.0 | 0.0 | 0.00 | 0.00 | 0.00 | 1010.9 | ||
| 20260906120021 | -17 | 0.0 | 0.0 | 0.00 | 0.00 | 0.00 | 1011.4 | ||
| 20260906114520 | -17 | 0.0 | 0.0 | 0.00 | 0.00 | 0.00 | 1011.7 | ||
| 20260906113046 | 14 | 282 | 0.0 | 0.0 | 0.00 | 0.00 | 0.00 | 86 | 1011.6 |
| 20260906111548 | 14 | 257 | 0.0 | 0.0 | 0.00 | 0.00 | 0.00 | 86 | 1011.7 |
| 20260906110040 | 15 | 318 | 0.0 | 0.0 | 0.00 | 0.00 | 0.00 | 87 | 1011.5 |
| 20260906104543 | 15 | 251 | 0.0 | 0.0 | 0.00 | 0.00 | 0.00 | 85 | 1011.4 |
| 20260906103046 | 15 | 251 | 0.0 | 0.0 | 0.00 | 0.00 | 0.00 | 85 | 1011.8 |
| 20260906101539 | 15 | 262 | 0.0 | 0.0 | 0.00 | 0.00 | 0.00 | 84 | 1011.5 |
| 20260906100033 | 15 | 325 | 0.0 | 0.0 | 0.00 | 0.00 | 0.00 | 83 | 1010.9 |
| 20260906094541 | 16 | 294 | 0.0 | 1.6 | 0.00 | 0.00 | 0.00 | 81 | 1011.2 |
| 20260906093037 | 16 | 319 | 0.0 | 0.0 | 0.00 | 0.00 | 0.00 | 81 | 1010.9 |
| 20260906091535 | 17 | 307 | 0.0 | 0.0 | 0.00 | 0.00 | 0.00 | 79 | 1010.8 |
| 20260906090027 | 17 | 7 | 0.0 | 0.0 | 0.00 | 0.00 | 0.00 | 78 | 1010.8 |
| 20260906084527 | 17 | 314 | 0.0 | 0.0 | 0.00 | 0.00 | 0.00 | 78 | 1011.1 |
| 20260906083025 | 17 | 339 | 0.0 | 0.0 | 0.00 | 0.00 | 0.00 | 78 | 1011.2 |
| 20260906081524 | 18 | 314 | 0.0 | 0.0 | 0.00 | 0.00 | 0.00 | 78 | 1011.4 |
| 20260906080022 | 18 | 343 | 0.0 | 0.0 | 0.00 | 0.00 | 0.00 | 76 | 1011.5 |
| 20260906074520 | 18 | 315 | 0.0 | 16.1 | 0.00 | 0.00 | 0.00 | 74 | 1011.6 |
| 20260906073020 | 20 | 86 | 17.7 | 35.4 | 0.00 | 0.00 | 0.00 | 71 | 1009.8 |
| 20260906071515 | 18 | 245 | 20.9 | 43.5 | 0.00 | 0.00 | 0.00 | 71 | 1012.6 |
| 20260906070020 | 16 | 65 | 1.6 | 20.9 | 0.00 | 0.00 | 0.00 | 69 | 1010.8 |
| 20260906064537 | 16 | 267 | 0.0 | 0.0 | 0.00 | 0.00 | 0.00 | 71 | 1012.8 |
| 20260906063038 | 16 | 236 | 0.0 | 0.0 | 0.00 | 0.00 | 0.00 | 69 | 1012.0 |
| 20260906061533 | 16 | 1 | 0.0 | 0.0 | 0.00 | 0.00 | 0.00 | 68 | 1011.7 |
| 20260906060031 | 17 | 1 | 0.0 | 0.0 | 0.00 | 0.00 | 0.00 | 62 | 1011.7 |
| 20260906054548 | 18 | 356 | 0.0 | 0.0 | 0.00 | 0.00 | 0.00 | 61 | 1011.7 |
| 20260906053028 | 17 | 307 | 0.0 | 0.0 | 0.00 | 0.00 | 0.00 | 61 | 1011.8 |
| 20260906051533 | 17 | 302 | 0.0 | 0.0 | 0.00 | 0.00 | 0.00 | 60 | 1011.9 |
| 20260906050030 | 17 | 278 | 0.0 | 0.0 | 0.00 | 0.00 | 0.00 | 59 | 1011.8 |
| 20260906044524 | 17 | 277 | 0.0 | 0.0 | 0.00 | 0.00 | 0.00 | 59 | 1011.7 |
| 20260906043024 | 18 | 3 | 0.0 | 0.0 | 0.00 | 0.00 | 0.00 | 54 | 1011.4 |
| 20260906041523 | 18 | 3 | 0.0 | 0.0 | 0.00 | 0.00 | 0.00 | 53 | 1011.4 |
| 20260906040021 | 18 | 44 | 0.0 | 0.0 | 0.00 | 0.00 | 0.00 | 54 | 1011.3 |
| 20260906034522 | 18 | 44 | 0.0 | 0.0 | 0.00 | 0.00 | 0.00 | 53 | 1011.2 |
| 20260906033020 | 19 | 44 | 0.0 | 0.0 | 0.00 | 0.00 | 0.00 | 50 | 1011.2 |
| 20260906031552 | 20 | 43 | 0.0 | 0.0 | 0.00 | 0.00 | 0.00 | 49 | 1011.3 |
| 20260906030016 | 20 | 96 | 0.0 | 0.0 | 0.00 | 0.00 | 0.00 | 49 | 1011.4 |
| 20260906024535 | 20 | 49 | 0.0 | 0.0 | 0.00 | 0.00 | 0.00 | 46 | 1011.1 |
| 20260906023020 | 21 | 347 | 0.0 | 0.0 | 0.00 | 0.00 | 0.00 | 44 | 1010.9 |
| 20260906021513 | 22 | 333 | 0.0 | 0.0 | 0.00 | 0.00 | 0.00 | 43 | 1010.7 |
| 20260906020013 | 23 | 340 | 0.0 | 0.0 | 0.00 | 0.00 | 0.00 | 42 | 1010.5 |
| 20260906014517 | 23 | 24 | 0.0 | 0.0 | 0.00 | 0.00 | 0.00 | 39 | 1010.4 |
| 20260906013012 | 25 | 351 | 0.0 | 0.0 | 0.00 | 0.00 | 0.00 | 38 | 1010.5 |
| 20260906011509 | 25 | 1 | 0.0 | 0.0 | 0.00 | 0.00 | 0.00 | 36 | 1010.4 |
| 20260906010022 | 26 | 16 | 0.0 | 6.4 | 0.00 | 0.00 | 0.00 | 35 | 1010.3 |
| 20260906004508 | 26 | 61 | 0.0 | 4.8 | 0.00 | 0.00 | 0.00 | 34 | 1010.4 |
| 20260906003007 | 26 | 61 | 0.0 | 14.5 | 0.00 | 0.00 | 0.00 | 33 | 1010.3 |
| 20260906001503 | 26 | 38 | 0.0 | 8.0 | 0.00 | 0.00 | 0.00 | 32 | 1010.4 |
| 20260906000007 | 26 | 58 | 0.0 | 12.9 | 0.00 | 0.00 | 0.00 | 32 | 1010.3 |
| 20260905234501 | 27 | 41 | 1.6 | 30.6 | 0.00 | 0.00 | 0.00 | 31 | 1010.0 |
| 20260905233001 | 27 | 65 | 9.7 | 25.7 | 0.00 | 0.00 | 0.00 | 30 | 1009.9 |
| 20260905231559 | 27 | 56 | 8.0 | 24.1 | 0.00 | 0.00 | 0.00 | 29 | 1009.9 |
| 20260905230059 | 27 | 44 | 4.8 | 29.0 | 0.00 | 0.00 | 0.00 | 30 | 1009.8 |
| 20260905224558 | 27 | 6 | 9.7 | 25.7 | 0.00 | 0.00 | 0.00 | 29 | 1009.8 |
| 20260905223056 | 27 | 42 | 3.2 | 33.8 | 0.00 | 0.00 | 0.00 | 30 | 1009.8 |